FAA A&P Mechanic (Merritt Island)

Apply Today!

Space Coast Aviation, a 2Fly Group company, is a full-service FBO that provide a variety of services to customers. We’re looking for a qualified FAA A&P Mechanic to join our team in Merritt Island (KCOI).  Position is available immediately and requires motivated, reliable and willing-to-learn individuals.

Ideal Candidates Should Posses:

  • US Resident/Citizen with legal right-to-work status
  • FAA A&P Certificate (IA preferred, but not required)
  • Two years minimum experience on General Aviation aircraft

Expected pay based on experience up to $35/hour. This position reports directly to the Director of Maintenance.

FBO Line Technician (Merritt Island)

Apply Today!

Space Coast Aviation, a 2Fly Group company, is a full-service FBO that provide a variety of services to customers. We’re looking for a Line Technician to join our team in Merritt Island (KCOI).  Position is available immediately and requires motivated, reliable and willing-to-learn individuals.

Ideal Candidates Should Posses:

  • US Resident/Citizen with legal right-to-work status

Job Duties and Responsibilities:

  • Hourly position
  • Must have flexibility with scheduling and available to work some weekends
  • Marshaling inbound and outbound aircraft
  • Ensure aircraft are secured
  • Assist with unloading and loading baggage for customers and/or crewmembers
  • Airplane Duties: refueling, towing, cleaning (interior/exterior), vacuuming, washing
  • Rental Car Duties: light maintenance, cleaning (interior/exterior), vacuuming, washing
  • Student Accommodations: light maintenance and occasional inspections

Expected pay based on experience. This position reports directly to the Line Service Supervisor.

SUBMIT YOUR RESUME

 

Verification

Airport Information

Identifier: KCOI
Non-Towered
Runway: 11 / 29
3601 X 75 ft
Surface: Asphalt

CTAF/UNICOM: 122.975
AWOS-3: 119.025
ORL APP: 132.65

Area Weather

Patrick AFB (KCOF) METAR:

KCOF 110458Z AUTO 30007KT 10SM CLR 10/02 A3029 RMK AO2 SLP262 T00990019 401420065 $

Titusville (KTIX) METAR:

KTIX 110147Z 31005KT 7SM SKC 06/04 A3031 RMK LAST

Melbourne (KMLB) METAR:

KMLB 110453Z AUTO 26004KT 10SM CLR 05/03 A3030 RMK AO2 SLP259 T00500033 401560044

Hours of Operation

Mon: 7:00am - 7:00pm EST
Tue: 7:00am - 7:00pm EST
Wed: 7:00am - 7:00pm EST
Thu: 7:00am - 7:00pm EST
Fri: 7:00am - 7:00pm EST
Sat: 7:00am - 7:00pm EST
Sun: 7:00am - 7:00pm EST

Contact Us

Merritt Island Airport
900 Airport Road
Merritt Island, FL 32952

P: +1 (321) 453-2222